Maun, Botswana

7:14 PM CAT on October 01, 2016 (GMT +0200)
Maun

Weather History for FBMN - October, 2011

Change the Weather History Date:

Thursday, October 6, 2011

  Actual Average Record
Temperature  
Mean Temperature 76 °F -  
Max Temperature 88 °F 93 °F 102 °F (1998)
Min Temperature 64 °F 66 °F 31 °F (2014)
Cooling Degree Days 11    
Growing Degree Days 26 (Base 50)    
Moisture  
Dew Point 51 °F    
Average Humidity 41    
Maximum Humidity 68    
Minimum Humidity 19    
Precipitation  
Precipitation 0.00 in - - ()
Sea Level Pressure  
Sea Level Pressure 30.17 in    
Wind  
Wind Speed 12 mph ()    
Max Wind Speed 22 mph    
Max Gust Speed -    
Visibility 6.1 miles    
Events      
Averages and records for this station are not official NWS values.
T = Trace of Precipitation, MM = Missing Value Source: Averaged Metar Reports

Daily Weather History Graph

Daily Weather History Graph

Search for Another Location

Airport or City:

Trip Planner

Search our weather history database for the weather conditions in past years. The results will help you decide how hot, cold, wet, or windy it might be!

Date:

Astronomy

Oct. 06, 2011 Rise Set
Actual Time 6:03 AM CAT 6:25 PM CAT
Civil Twilight 5:41 AM CAT 6:47 PM CAT
Nautical Twilight 5:15 AM CAT 7:13 PM CAT
Astronomical Twilight 4:49 AM CAT 7:39 PM CAT
Moon 1:56 PM CAT (10/6) 2:16 AM CAT (10/6)
Length of Visible Light 13h 06m
Length of Day
12h 21m
Waxing Gibbous, 73% of the Moon is Illuminated
Oct 6
Waxing Gibbous
Oct 12
Full
Oct 20
Last Quarter
Oct 26
New
Nov 2
First Quarter

Hourly Weather History & Observations

Time (CAT) Temp. Heat Index Dew Point Humidity Pressure Visibility Wind Dir Wind Speed Gust Speed Precip Events Conditions
12:00 AM 69.8 °F - 42.8 °F 38% 30.09 in - South 5.8 mph - N/A   Clear
1:00 AM 68.0 °F - 42.8 °F 40% 30.09 in - SSE 5.8 mph - N/A   Clear
2:00 AM 69 °F - 36 °F 19%  in 6 mi SSE 10.4 mph - -  
2:00 AM 69.8 °F - 35.6 °F 28% 30.09 in - SSE 10.4 mph - N/A   Clear
3:00 AM 68.0 °F - 35.6 °F 30% 30.09 in - SSE 10.4 mph - N/A   Clear
4:00 AM 66.2 °F - 37.4 °F 35% 30.12 in - SE 10.4 mph - N/A   Clear
5:00 AM 68.0 °F - 50.0 °F 52% 30.15 in - ESE 13.8 mph - N/A   Clear
6:00 AM 68.0 °F - 53.6 °F 60% 30.18 in - SE 15.0 mph - N/A   Clear
7:00 AM 66.2 °F - 55.4 °F 68% 30.21 in - ESE 15.0 mph - N/A   Clear
8:00 AM 69 °F - 56 °F 53%  in 6 mi SSE 21.9 mph - -  
8:00 AM 69.8 °F - 55.4 °F 60% 30.24 in - SSE 21.9 mph - N/A   Clear
9:00 AM 71.6 °F - 57.2 °F 60% 30.27 in - East 20.7 mph - N/A   Clear
10:00 AM 75.2 °F - 57.2 °F 53% 30.24 in - East 19.6 mph - N/A   Clear
11:00 AM 78.8 °F - 57.2 °F 47% 30.24 in - East 18.4 mph - N/A   Clear
12:00 PM 82.4 °F 82.5 °F 59.0 °F 45% 30.21 in - ESE 17.3 mph - N/A   Clear
1:00 PM 84.2 °F 83.8 °F 59.0 °F 42% 30.18 in - East 16.1 mph - N/A   Clear
2:00 PM 87 °F - 59 °F 29%  in 6 mi East 17.3 mph - -  
2:00 PM 87.8 °F 87.1 °F 59.0 °F 38% 30.15 in 6.2 mi East 17.3 mph - N/A   Scattered Clouds
3:00 PM 87.8 °F 86.5 °F 57.2 °F 35% 30.12 in 6.2 mi East 17.3 mph - N/A   Scattered Clouds
4:00 PM 87.8 °F 86.1 °F 55.4 °F 33% 30.12 in 6.2 mi East 16.1 mph - N/A   Scattered Clouds
5:00 PM 87.8 °F 86.1 °F 55.4 °F 33% 30.12 in 6.2 mi East 16.1 mph - N/A   Scattered Clouds
6:00 PM 86.0 °F 84.2 °F 53.6 °F 33% 30.12 in 6.2 mi ESE 15.0 mph - N/A   Partly Cloudy
7:00 PM 82.4 °F - 50.0 °F 32% 30.15 in 6.2 mi SE 15.0 mph - N/A   Partly Cloudy
8:00 PM 78 °F - 50 °F 27%  in 6 mi SE 17.3 mph - -  
8:00 PM 78.8 °F - 50.0 °F 36% 30.18 in - SE 17.3 mph - N/A   Clear
9:00 PM 77.0 °F - 48.2 °F 36% 30.21 in - ESE 16.1 mph - N/A   Clear
10:00 PM 75.2 °F - 42.8 °F 31% 30.21 in - ESE 16.1 mph - N/A   Clear
11:00 PM 71.6 °F - 50.0 °F 46% 30.24 in - ESE 17.3 mph - N/A   Clear